Weather Service Report


002 
ASUS41 KGYX 202210
RWRGYX
WEATHER ROUNDUP FOR MAINE AND NEW HAMPSHIRE
NATIONAL WEATHER SERVICE GRAY ME
600 PM EDT FRI OCT 20 2017

MEZ002-005-006-010-012-015-018-020-021-024-026-027-029-202300-
MAINE
  
CITY           SKY/WX    TMP DP  RH WIND       PRES   REMARKS
PORTLAND       PTCLDY    62  36  37 NW5       29.99R                  
SANFORD        CLEAR     62  36  37 W9        30.00R                  
BAR HARBOR     CLEAR     61  37  41 NW7       29.94R                  
WISCASSET      CLEAR     64  35  34 VRB7      29.99R                  
ROCKLAND       CLEAR     62  37  39 NW6       29.96R                  
FRYEBURG       CLEAR     52  44  74 W5        30.00R                  
LEWISTONAUBURN CLEAR     63  34  33 NW16G25   29.99R                  
AUGUSTA        CLEAR     60  33  36 NW10      29.99R                  
WATERVILLE     CLEAR     59  36  42 W6        29.95R                  
BANGOR         CLEAR     60  35  39 NW13      29.95R                  
GREENVILLE       N/A     52  36  54 NW12G26   29.96R                  
MILLINOCKET    CLEAR     55  35  47 NW13G28   29.95R                  
HOULTON        CLEAR     54  35  48 NW14G23   29.91R                  
PRESQUE ISLE   CLEAR     51  33  50 NW14G21   29.94R                  
FRENCHVILLE    CLEAR     45  30  55 NW16      29.92R                  
CARIBOU        CLEAR     50  33  52 NW7       29.93R                  
$$

NHZ002-005-008-009-011-012-014-202300-
NEW HAMPSHIRE
  
CITY           SKY/WX    TMP DP  RH WIND       PRES   REMARKS
PORTSMOUTH     CLEAR     63  35  35 W5        29.99R                  
ROCHESTER      CLEAR     63  33  32 CALM      30.00R                  
NASHUA         CLEAR     64  37  36 W6        30.05R                  
MANCHESTER     CLEAR     67  32  27 NW9       30.02R                  
CONCORD        CLEAR     64  34  32 NW7       30.03R                  
LACONIA        CLEAR     63  34  33 VRB6      30.04R                  
PLYMOUTH       FAIR      62  30  29 NW8       30.04R                  
BERLIN         CLEAR     57  34  41 CALM      30.05R                  
WHITEFIELD     CLEAR     57  34  41 W7        30.08R                  
JAFFREY        CLEAR     63  34  33 VRB7      30.09R                  
KEENE          CLEAR     64  36  35 CALM      30.09R                  
LEBANON        CLEAR     63  32  31 N3        30.07R                  
MT WASHINGTON  PTCLDY    36  23  60 NW66G81     N/A                   
$$

VTZ005-007-008-202300-
VERMONT
  
CITY           SKY/WX    TMP DP  RH WIND       PRES   REMARKS
ST JOHNSBURY     N/A     59  34  39 MISG      30.06R                  
BURLINGTON     PTCLDY    63  35  35 NW5       30.10R                  
$$

MAZ007-012-024-CTZ003-RIZ002-NYZ038-NYZ072-202300-
SOUTHERN NEW ENGLAND AND NY
  
CITY           SKY/WX    TMP DP  RH WIND       PRES   REMARKS
BOSTON         CLEAR     68  35  29 W12       30.02R                  
WORCESTER      CLEAR     62  32  32 NW7       30.08R                  
NANTUCKET      CLEAR     59  54  83 W6        30.03R                  
PROVIDENCE     PTCLDY    67  39  35 NW8       30.06R                  
HARTFORD       PTCLDY    65  40  39 NW5       30.08R                  
ALBANY         PTCLDY    64  35  34 W8        30.12R                  
NEW YORK CITY  PTCLDY    72  39  30 NW13      30.10R                  
$$

ANZ081-ANZ082-ANZ150-NHZ014-MEZ023>029-202300-
COASTAL MARINE OBSERVATIONS
  
STATION/POSITION TIME  TEMP    WIND        PRES    WAVE
                       AIR SEA DIR/SP/G            HT/PER
                 (UTC) (F)     (DEG/KT/KT) (MB)    (FT/S)
MOUNT DESERT ROC 2200   58     240/ 15/ 16 1013.8R
MATINICUS ROCK   2100   57     250/ 17/ 19 1012.8R
ISLE OF SHOALS   2100   66     280/ 16/ 17 1014.8R
JEFFREYS LEDGE   2106      58                N/A     2/ 8
GEORGES BANK BUO 2050   60 59              1013.3    4/ 6
$$

.............KEY..............
   WCI - WIND CHILL
   TC  - TEMPERATURE IN CELSIUS
   VSB - VISIBILITY IN MILES
   HX  - HEAT INDEX
   FAIR- INDICATES FEW OR NO CLOUDS BELOW 12,000 FT, WITH NO 
         SIGNIFICANT WEATHER AND/OR OBSTRUCTIONS TO VISIBILITY.


  

Return to Home page


Western Regional Climate Center, wrcc@dri.edu